OneWeb SL0229

operational
NORAD ID: 48779 Int'l Des: 2021-045 Owner: ONEWEBN Country: UK Constellation: oneweb
LEOCIRCULARPOLARONEWEB_TYPE

About OneWeb SL0229

Description loading...

Live Position

Loading 3D Globe...

Upcoming Passes

Altitude History

Altitude vs Time

uPlot chart will show altitude changes over time

Two-Line Element Set

1 48779U 21045N 25258.57083617 -.00000212 00000-0 -59708-3 0 9995
2 48779 87.9023 313.9869 0001762 93.4031 266.7301 13.15549558208305
Epoch: Sep 15, 2025 • Age: 12 hours

Current Status

Altitude 1231.9 km
Velocity 7.24 km/s
Sub-Earth Point -87.58°S, 167.86°E
Launch Date May 28, 2021
Age 4.3 years
Type internet

Technical Details

Classification Payload
Mass 148.00 kg
Dry Mass 140.00 kg
Total Mass 148.00 kg
Length 1.30 m
Diameter 1.00 m
Span 5.00 m
Shape Trapezoid+2 pan
Manufacturer ONEWUS
Bus Type ARROW
Phase Status In Orbit
Owner/State ONEWEBN/UK

Large Constellations

Loading constellations...